7 * 24
多渠道服务支持
IRIDIUM 5 是 Iridium 卫星通信网络的一部分,属于 Iridium NEXT 项目,由 66 颗在轨卫星组成,提供全球范围的语音和数据通信服务。该卫星运行在低地球轨道,高度约 780 公里,支持多种应用,包括航空、航海和偏远地区的移动通信。IRIDIUM 5 卫星采用先进设计,具备抗干扰能力和高可靠性,为用户提供无缝连接。其系统通过星间链路实现全球覆盖,无需地面基站支持。
美国
(US)
| 数据来源 | 国际轨道数据 |
| 星历时间: | 2025-10-28T21:53:03+0800 17小时前 查看轨道信息 |
| 半长轴: | 6957.709km |
| 偏心率: | 0.0106223 |
| 轨道倾角: | 86.392° |
| 近地点辐角 | 20.311° |
| 升交点赤经 | 22.145° |
| 平近点角 | 340.229° |
| 近地点: | 505.667km |
| 远地点: | 653.481km |
| 周期: | 96.263分钟 |
| 每日圈数: | 14.95903 |